Time,TemperatureF,DewpointF,PressureIn,WindDirection,WindDirectionDegrees,WindSpeedMPH,WindSpeedGustMPH,Humidity,HourlyPrecipIn,Conditions,Clouds,dailyrainin,SoftwareType,DateUTC
2013-02-06 06:20:00,54.9,52.6,30.04,West,269,0.0,0.0,92,0.00,,,0.00,Wunderground v.1.15,2013-02-06 11:20:00,
2013-02-06 06:25:00,54.9,52.6,30.04,West,269,0.0,0.0,92,0.00,,,0.00,Wunderground v.1.15,2013-02-06 11:25:00,
2013-02-06 06:30:00,54.9,52.6,30.04,West,269,0.0,0.0,92,0.00,,,0.00,Wunderground v.1.15,2013-02-06 11:30:00,
2013-02-06 06:35:00,54.8,52.5,30.04,West,269,0.0,0.0,92,0.00,,,0.00,Wunderground v.1.15,2013-02-06 11:35:00,
2013-02-06 06:40:00,54.9,52.6,30.04,West,269,0.0,0.0,92,0.00,,,0.00,Wunderground v.1.15,2013-02-06 11:40:00,
2013-02-06 06:45:00,55.1,52.8,30.04,West,269,0.0,0.0,92,0.00,,,0.00,Wunderground v.1.15,2013-02-06 11:45:00,
2013-02-06 06:50:00,55.3,53.0,30.04,West,269,0.0,0.0,92,0.00,,,0.00,Wunderground v.1.15,2013-02-06 11:50:00,
2013-02-06 07:00:00,56.0,54.0,30.04,West,269,0.0,0.0,93,0.00,,,0.00,Wunderground v.1.15,2013-02-06 12:00:00,
2013-02-06 07:10:00,56.3,54.3,30.04,West,269,0.0,0.0,93,0.00,,,0.00,Wunderground v.1.15,2013-02-06 12:10:00,
2013-02-06 07:15:00,56.4,54.4,30.04,West,269,0.0,0.0,93,0.00,,,0.00,Wunderground v.1.15,2013-02-06 12:15:00,
2013-02-06 07:20:00,56.4,54.4,30.04,West,269,0.0,0.0,93,0.00,,,0.00,Wunderground v.1.15,2013-02-06 12:20:00,
2013-02-06 07:25:00,56.4,54.4,30.04,West,269,0.0,0.0,93,0.00,,,0.00,Wunderground v.1.15,2013-02-06 12:25:00,
2013-02-06 07:30:00,56.5,54.5,30.05,West,269,0.0,0.0,93,0.00,,,0.00,Wunderground v.1.15,2013-02-06 12:30:00,
2013-02-06 07:35:00,56.6,54.6,30.05,West,269,0.0,0.0,93,0.00,,,0.00,Wunderground v.1.15,2013-02-06 12:35:00,
2013-02-06 07:40:00,56.7,54.4,30.05,West,269,0.0,0.0,92,0.00,,,0.00,Wunderground v.1.15,2013-02-06 12:40:00,
2013-02-06 07:45:00,56.8,54.5,30.06,West,269,0.0,0.0,92,0.00,,,0.00,Wunderground v.1.15,2013-02-06 12:45:00,
2013-02-06 07:50:00,56.8,54.5,30.06,West,269,0.0,0.0,92,0.00,,,0.00,Wunderground v.1.15,2013-02-06 12:50:00,
2013-02-06 07:55:00,57.0,54.7,30.06,West,269,0.0,0.0,92,0.00,,,0.00,Wunderground v.1.15,2013-02-06 12:55:00,
2013-02-06 08:05:00,57.2,55.2,30.06,West,269,0.0,0.0,93,0.00,,,0.00,Wunderground v.1.15,2013-02-06 13:05:00,
2013-02-06 08:15:00,57.5,55.2,30.06,ENE,71,0.0,0.0,92,0.00,,,0.00,Wunderground v.1.15,2013-02-06 13:15:00,
2013-02-06 08:20:00,58.0,55.4,30.06,ENE,69,0.0,0.0,91,0.00,,,0.00,Wunderground v.1.15,2013-02-06 13:20:00,
2013-02-06 08:25:00,59.7,56.1,30.07,ENE,69,0.0,0.0,88,0.00,,,0.00,Wunderground v.1.15,2013-02-06 13:25:00,
2013-02-06 08:30:00,60.7,56.2,30.07,ENE,69,0.0,0.0,85,0.00,,,0.00,Wunderground v.1.15,2013-02-06 13:30:00,
2013-02-06 08:35:00,61.2,56.0,30.07,ENE,69,0.0,0.0,83,0.00,,,0.00,Wunderground v.1.15,2013-02-06 13:35:00,
2013-02-06 08:40:00,61.4,55.9,30.07,ENE,69,0.0,0.0,82,0.00,,,0.00,Wunderground v.1.15,2013-02-06 13:40:00,
2013-02-06 08:45:00,61.8,56.2,30.07,ENE,69,0.0,0.0,82,0.00,,,0.00,Wunderground v.1.15,2013-02-06 13:45:00,
2013-02-06 08:50:00,62.3,56.7,30.07,ENE,69,0.0,0.0,82,0.00,,,0.00,Wunderground v.1.15,2013-02-06 13:50:00,
2013-02-06 08:55:00,62.6,56.3,30.08,ENE,69,0.0,0.0,80,0.00,,,0.00,Wunderground v.1.15,2013-02-06 13:55:00,
2013-02-06 09:00:00,62.9,56.6,30.08,ENE,69,0.0,0.0,80,0.00,,,0.00,Wunderground v.1.15,2013-02-06 14:00:00,
2013-02-06 09:05:00,63.1,56.5,30.08,ESE,103,0.0,0.0,79,0.00,,,0.00,Wunderground v.1.15,2013-02-06 14:05:00,
2013-02-06 09:10:00,63.4,56.1,30.08,ESE,102,0.0,0.0,77,0.00,,,0.00,Wunderground v.1.15,2013-02-06 14:10:00,
2013-02-06 09:20:00,64.3,56.6,30.09,ESE,102,0.0,0.0,76,0.00,,,0.00,Wunderground v.1.15,2013-02-06 14:20:00,
2013-02-06 09:25:00,64.7,56.6,30.09,ESE,102,0.0,0.0,75,0.00,,,0.00,Wunderground v.1.15,2013-02-06 14:25:00,
2013-02-06 09:35:00,65.3,56.8,30.09,ESE,102,0.0,0.0,74,0.00,,,0.00,Wunderground v.1.15,2013-02-06 14:35:00,
2013-02-06 09:40:00,65.6,57.1,30.09,ESE,102,0.0,0.0,74,0.00,,,0.00,Wunderground v.1.15,2013-02-06 14:40:00,
2013-02-06 09:45:00,66.0,57.5,30.09,East,101,0.0,0.0,74,0.00,,,0.00,Wunderground v.1.15,2013-02-06 14:45:00,
2013-02-06 09:50:00,66.5,57.6,30.09,East,101,0.0,0.0,73,0.00,,,0.00,Wunderground v.1.15,2013-02-06 14:50:00,
2013-02-06 09:55:00,66.7,57.8,30.10,ESE,110,0.0,0.0,73,0.00,,,0.00,Wunderground v.1.15,2013-02-06 14:55:00,
2013-02-06 10:05:00,67.3,58.3,30.10,East,87,0.0,0.0,73,0.00,,,0.00,Wunderground v.1.15,2013-02-06 15:05:00,
2013-02-06 10:15:00,67.6,58.6,30.10,East,87,0.0,0.0,73,0.00,,,0.00,Wunderground v.1.15,2013-02-06 15:15:00,
2013-02-06 10:20:00,67.8,58.8,30.10,East,87,0.0,0.0,73,0.00,,,0.00,Wunderground v.1.15,2013-02-06 15:20:00,
2013-02-06 10:25:00,67.9,58.9,30.10,East,87,0.0,0.0,73,0.00,,,0.00,Wunderground v.1.15,2013-02-06 15:25:00,
2013-02-06 10:30:00,68.0,58.6,30.10,East,87,0.0,0.0,72,0.00,,,0.00,Wunderground v.1.15,2013-02-06 15:30:00,
2013-02-06 10:35:00,68.2,59.2,30.09,East,87,0.0,0.0,73,0.00,,,0.00,Wunderground v.1.15,2013-02-06 15:35:00,
2013-02-06 10:40:00,68.4,59.4,30.09,NE,38,0.0,0.0,73,0.00,,,0.00,Wunderground v.1.15,2013-02-06 15:40:00,
2013-02-06 10:50:00,68.9,59.9,30.09,NE,38,0.0,0.0,73,0.00,,,0.00,Wunderground v.1.15,2013-02-06 15:50:00,
2013-02-06 10:55:00,69.1,59.7,30.09,East,80,0.0,0.0,72,0.00,,,0.00,Wunderground v.1.15,2013-02-06 15:55:00,
2013-02-06 11:00:00,69.2,59.8,30.10,East,80,0.0,0.0,72,0.00,,,0.00,Wunderground v.1.15,2013-02-06 16:00:00,
2013-02-06 11:05:00,69.4,59.2,30.10,ENE,71,0.0,0.0,70,0.00,,,0.00,Wunderground v.1.15,2013-02-06 16:05:00,
2013-02-06 11:10:00,69.4,59.2,30.10,ENE,71,0.0,0.0,70,0.00,,,0.00,Wunderground v.1.15,2013-02-06 16:10:00,
2013-02-06 11:15:00,69.5,58.9,30.10,ENE,61,0.0,0.0,69,0.00,,,0.00,Wunderground v.1.15,2013-02-06 16:15:00,
2013-02-06 11:20:00,69.6,59.4,30.10,ENE,61,0.0,0.0,70,0.00,,,0.00,Wunderground v.1.15,2013-02-06 16:20:00,
2013-02-06 11:25:00,69.8,60.0,30.10,ENE,61,0.0,0.0,71,0.00,,,0.00,Wunderground v.1.15,2013-02-06 16:25:00,
2013-02-06 11:30:00,70.0,60.2,30.09,ENE,61,0.0,0.0,71,0.00,,,0.00,Wunderground v.1.15,2013-02-06 16:30:00,
2013-02-06 11:35:00,70.0,60.2,30.09,NNE,32,0.0,4.0,71,0.00,,,0.00,Wunderground v.1.15,2013-02-06 16:35:00,
2013-02-06 11:45:00,71.1,60.8,30.09,NNW,346,1.0,3.0,70,0.00,,,0.00,Wunderground v.1.15,2013-02-06 16:45:00,
2013-02-06 11:50:00,70.9,61.0,30.09,North,355,1.0,1.0,71,0.00,,,0.00,Wunderground v.1.15,2013-02-06 16:50:00,
2013-02-06 12:00:00,70.3,60.1,30.09,WNW,298,0.0,0.0,70,0.00,,,0.00,Wunderground v.1.15,2013-02-06 17:00:00,
2013-02-06 12:05:00,70.6,60.3,30.09,NNW,348,1.0,1.0,70,0.00,,,0.00,Wunderground v.1.15,2013-02-06 17:05:00,
2013-02-06 12:10:00,70.3,60.4,30.08,NNW,345,1.0,3.0,71,0.00,,,0.00,Wunderground v.1.15,2013-02-06 17:10:00,
2013-02-06 12:15:00,70.5,60.6,30.08,North,360,2.0,3.0,71,0.00,,,0.00,Wunderground v.1.15,2013-02-06 17:15:00,
2013-02-06 12:20:00,70.7,60.8,30.08,North,355,3.0,3.0,71,0.00,,,0.00,Wunderground v.1.15,2013-02-06 17:20:00,
2013-02-06 12:25:00,71.3,61.8,30.08,North,360,2.0,3.0,72,0.00,,,0.00,Wunderground v.1.15,2013-02-06 17:25:00,
2013-02-06 12:30:00,71.0,61.1,30.08,North,355,2.0,2.0,71,0.00,,,0.00,Wunderground v.1.15,2013-02-06 17:30:00,
2013-02-06 12:35:00,71.1,61.2,30.08,North,5,1.0,2.0,71,0.00,,,0.00,Wunderground v.1.15,2013-02-06 17:35:00,
2013-02-06 12:40:00,70.7,60.4,30.07,NNE,19,1.0,2.0,70,0.00,,,0.00,Wunderground v.1.15,2013-02-06 17:40:00,
2013-02-06 12:45:00,71.0,60.7,30.07,North,360,1.0,2.0,70,0.00,,,0.00,Wunderground v.1.15,2013-02-06 17:45:00,
2013-02-06 12:50:00,71.0,60.7,30.07,NNE,19,1.0,1.0,70,0.00,,,0.00,Wunderground v.1.15,2013-02-06 17:50:00,
2013-02-06 12:55:00,71.2,60.9,30.07,NNE,15,1.0,1.0,70,0.00,,,0.00,Wunderground v.1.15,2013-02-06 17:55:00,
2013-02-06 13:05:00,71.6,60.5,30.06,North,5,1.0,1.0,68,0.00,,,0.00,Wunderground v.1.15,2013-02-06 18:05:00,
2013-02-06 13:10:00,71.8,61.1,30.06,North,9,1.0,1.0,69,0.00,,,0.00,Wunderground v.1.15,2013-02-06 18:10:00,
2013-02-06 17:20:00,73.1,61.1,30.03,North,351,1.0,1.0,66,0.00,,,0.00,Wunderground v.1.15,2013-02-06 22:20:00,
2013-02-06 17:25:00,73.0,61.0,30.03,North,351,1.0,1.0,66,0.00,,,0.00,Wunderground v.1.15,2013-02-06 22:25:00,
2013-02-06 17:30:00,72.9,61.3,30.03,North,355,2.0,2.0,67,0.00,,,0.00,Wunderground v.1.15,2013-02-06 22:30:00,
2013-02-06 17:35:00,72.8,60.8,30.03,NNE,19,1.0,2.0,66,0.00,,,0.00,Wunderground v.1.15,2013-02-06 22:35:00,
2013-02-06 17:45:00,72.5,60.9,30.03,NE,47,2.0,3.0,67,0.00,,,0.00,Wunderground v.1.15,2013-02-06 22:45:00,
2013-02-06 17:50:00,72.4,60.8,30.03,NNE,14,2.0,2.0,67,0.00,,,0.00,Wunderground v.1.15,2013-02-06 22:50:00,
2013-02-06 17:55:00,72.2,61.0,30.03,NNE,15,2.0,4.0,68,0.00,,,0.00,Wunderground v.1.15,2013-02-06 22:55:00,
2013-02-06 18:05:00,71.8,61.1,30.03,NNE,17,2.0,6.0,69,0.00,,,0.00,Wunderground v.1.15,2013-02-06 23:05:00,
2013-02-06 18:10:00,71.6,61.3,30.03,NNE,17,2.0,2.0,70,0.00,,,0.00,Wunderground v.1.15,2013-02-06 23:10:00,
2013-02-06 18:20:00,71.2,61.7,30.03,NNE,17,1.0,1.0,72,0.00,,,0.00,Wunderground v.1.15,2013-02-06 23:20:00,
2013-02-06 18:25:00,71.1,62.0,30.03,NNE,17,0.0,1.0,73,0.00,,,0.00,Wunderground v.1.15,2013-02-06 23:25:00,
2013-02-06 18:30:00,70.9,62.6,30.03,NNE,17,0.0,2.0,75,0.00,,,0.00,Wunderground v.1.15,2013-02-06 23:30:00,
2013-02-06 18:35:00,70.7,62.8,30.03,NNE,17,1.0,2.0,76,0.00,,,0.00,Wunderground v.1.15,2013-02-06 23:35:00,
2013-02-06 18:40:00,70.6,63.0,30.03,North,5,2.0,2.0,77,0.00,,,0.00,Wunderground v.1.15,2013-02-06 23:40:00,
2013-02-06 18:45:00,70.5,63.3,30.03,North,9,2.0,2.0,78,0.00,,,0.00,Wunderground v.1.15,2013-02-06 23:45:00,
2013-02-06 18:50:00,70.3,63.1,30.03,NNE,13,2.0,3.0,78,0.00,,,0.00,Wunderground v.1.15,2013-02-06 23:50:00,
2013-02-06 18:55:00,70.3,63.5,30.03,North,11,2.0,3.0,79,0.00,,,0.00,Wunderground v.1.15,2013-02-06 23:55:00,
2013-02-06 19:00:00,70.2,63.4,30.03,North,11,3.0,3.0,79,0.00,,,0.00,Wunderground v.1.15,2013-02-07 00:00:00,
2013-02-06 19:10:00,70.0,63.2,30.03,NNE,17,1.0,1.0,79,0.00,,,0.00,Wunderground v.1.15,2013-02-07 00:10:00,
2013-02-06 19:15:00,69.9,63.1,30.03,NNE,17,1.0,1.0,79,0.00,,,0.00,Wunderground v.1.15,2013-02-07 00:15:00,
2013-02-06 19:20:00,69.8,63.0,30.03,NNE,17,1.0,1.0,79,0.00,,,0.00,Wunderground v.1.15,2013-02-07 00:20:00,
2013-02-06 19:25:00,69.8,63.0,30.04,NNE,22,1.0,1.0,79,0.00,,,0.00,Wunderground v.1.15,2013-02-07 00:25:00,
2013-02-06 19:30:00,69.8,63.0,30.04,North,360,1.0,1.0,79,0.00,,,0.00,Wunderground v.1.15,2013-02-07 00:30:00,
2013-02-06 19:35:00,69.8,63.3,30.04,NNE,18,2.0,3.0,80,0.00,,,0.00,Wunderground v.1.15,2013-02-07 00:35:00,
2013-02-06 19:40:00,69.8,63.3,30.04,NNE,18,2.0,2.0,80,0.00,,,0.00,Wunderground v.1.15,2013-02-07 00:40:00,
2013-02-06 19:45:00,69.8,63.3,30.04,North,5,2.0,2.0,80,0.00,,,0.00,Wunderground v.1.15,2013-02-07 00:45:00,
2013-02-06 19:50:00,69.8,63.3,30.04,North,5,1.0,1.0,80,0.00,,,0.00,Wunderground v.1.15,2013-02-07 00:50:00,
2013-02-06 19:55:00,69.8,63.3,30.05,North,5,1.0,1.0,80,0.00,,,0.00,Wunderground v.1.15,2013-02-07 00:55:00,
2013-02-06 20:00:00,69.7,63.6,30.05,North,5,1.0,1.0,81,0.00,,,0.00,Wunderground v.1.15,2013-02-07 01:00:00,
2013-02-06 20:05:00,69.7,63.6,30.05,North,5,1.0,2.0,81,0.00,,,0.00,Wunderground v.1.15,2013-02-07 01:05:00,
2013-02-06 20:10:00,69.6,63.5,30.05,North,9,2.0,2.0,81,0.00,,,0.00,Wunderground v.1.15,2013-02-07 01:10:00,
2013-02-06 20:15:00,69.5,63.4,30.05,North,9,2.0,3.0,81,0.00,,,0.00,Wunderground v.1.15,2013-02-07 01:15:00,
2013-02-06 20:20:00,69.4,63.3,30.05,North,9,2.0,2.0,81,0.00,,,0.00,Wunderground v.1.15,2013-02-07 01:20:00,
2013-02-06 20:25:00,69.2,63.1,30.05,North,5,1.0,2.0,81,0.00,,,0.00,Wunderground v.1.15,2013-02-07 01:25:00,
2013-02-06 20:35:00,68.8,63.1,30.05,NNE,12,1.0,1.0,82,0.00,,,0.00,Wunderground v.1.15,2013-02-07 01:35:00,
2013-02-06 20:40:00,68.7,63.0,30.05,NNE,13,1.0,2.0,82,0.00,,,0.00,Wunderground v.1.15,2013-02-07 01:40:00,
2013-02-06 20:50:00,68.6,63.2,30.05,NNE,15,1.0,1.0,83,0.00,,,0.00,Wunderground v.1.15,2013-02-07 01:50:00,
2013-02-06 20:55:00,68.6,63.2,30.05,North,11,1.0,1.0,83,0.00,,,0.00,Wunderground v.1.15,2013-02-07 01:55:00,
2013-02-06 21:00:00,68.6,63.2,30.06,North,11,1.0,1.0,83,0.00,,,0.00,Wunderground v.1.15,2013-02-07 02:00:00,
2013-02-06 21:05:00,68.5,63.1,30.06,NNE,19,0.0,3.0,83,0.00,,,0.00,Wunderground v.1.15,2013-02-07 02:05:00,
2013-02-06 21:10:00,68.5,63.5,30.06,North,360,2.0,2.0,84,0.00,,,0.00,Wunderground v.1.15,2013-02-07 02:10:00,
2013-02-06 21:15:00,68.4,63.4,30.06,North,5,2.0,2.0,84,0.00,,,0.00,Wunderground v.1.15,2013-02-07 02:15:00,
2013-02-06 21:20:00,68.4,63.4,30.07,North,5,1.0,1.0,84,0.00,,,0.00,Wunderground v.1.15,2013-02-07 02:20:00,
2013-02-06 21:25:00,68.4,63.4,30.07,North,5,0.0,1.0,84,0.00,,,0.00,Wunderground v.1.15,2013-02-07 02:25:00,
2013-02-06 21:30:00,68.3,63.3,30.07,North,5,0.0,0.0,84,0.00,,,0.00,Wunderground v.1.15,2013-02-07 02:30:00,
2013-02-06 21:40:00,68.1,63.1,30.07,North,5,0.0,0.0,84,0.00,,,0.00,Wunderground v.1.15,2013-02-07 02:40:00,
2013-02-06 21:45:00,68.1,63.4,30.07,North,5,0.0,0.0,85,0.00,,,0.00,Wunderground v.1.15,2013-02-07 02:45:00,
2013-02-06 21:50:00,68.0,63.3,30.07,North,5,0.0,0.0,85,0.00,,,0.00,Wunderground v.1.15,2013-02-07 02:50:00,
2013-02-06 21:55:00,67.9,63.2,30.07,North,5,0.0,0.0,85,0.00,,,0.00,Wunderground v.1.15,2013-02-07 02:55:00,
2013-02-06 22:00:00,67.8,63.1,30.07,North,5,0.0,0.0,85,0.00,,,0.00,Wunderground v.1.15,2013-02-07 03:00:00,
2013-02-06 22:05:00,67.8,63.5,30.07,North,5,0.0,0.0,86,0.00,,,0.00,Wunderground v.1.15,2013-02-07 03:05:00,
2013-02-06 22:10:00,67.7,63.4,30.07,North,5,0.0,0.0,86,0.00,,,0.00,Wunderground v.1.15,2013-02-07 03:10:00,
2013-02-06 22:15:00,67.7,63.4,30.07,North,5,0.0,0.0,86,0.00,,,0.00,Wunderground v.1.15,2013-02-07 03:15:00,
2013-02-06 22:25:00,67.7,63.4,30.07,North,5,0.0,0.0,86,0.00,,,0.00,Wunderground v.1.15,2013-02-07 03:25:00,
2013-02-06 22:30:00,67.7,63.4,30.07,North,5,0.0,0.0,86,0.00,,,0.00,Wunderground v.1.15,2013-02-07 03:30:00,
2013-02-06 22:35:00,67.6,63.3,30.07,North,5,0.0,0.0,86,0.00,,,0.00,Wunderground v.1.15,2013-02-07 03:35:00,
2013-02-06 22:40:00,67.5,63.2,30.06,North,5,0.0,0.0,86,0.00,,,0.00,Wunderground v.1.15,2013-02-07 03:40:00,
2013-02-06 22:50:00,67.4,63.4,30.06,North,5,0.0,0.0,87,0.00,,,0.00,Wunderground v.1.15,2013-02-07 03:50:00,
2013-02-06 22:55:00,67.2,63.2,30.06,North,5,0.0,0.0,87,0.00,,,0.00,Wunderground v.1.15,2013-02-07 03:55:00,
2013-02-06 23:00:00,67.1,63.1,30.06,North,5,0.0,0.0,87,0.00,,,0.00,Wunderground v.1.15,2013-02-07 04:00:00,
2013-02-06 23:05:00,66.9,62.9,30.06,North,5,0.0,0.0,87,0.00,,,0.00,Wunderground v.1.15,2013-02-07 04:05:00,
2013-02-06 23:10:00,66.8,62.8,30.07,North,5,0.0,0.0,87,0.00,,,0.00,Wunderground v.1.15,2013-02-07 04:10:00,
2013-02-06 23:20:00,66.3,62.3,30.06,North,5,0.0,0.0,87,0.00,,,0.00,Wunderground v.1.15,2013-02-07 04:20:00,
2013-02-06 23:25:00,65.9,61.9,30.06,North,5,0.0,0.0,87,0.00,,,0.00,Wunderground v.1.15,2013-02-07 04:25:00,
2013-02-06 23:30:00,65.6,61.9,30.06,North,5,0.0,0.0,88,0.00,,,0.00,Wunderground v.1.15,2013-02-07 04:30:00,
2013-02-06 23:35:00,65.4,61.8,30.06,North,5,0.0,0.0,88,0.00,,,0.00,Wunderground v.1.15,2013-02-07 04:35:00,
2013-02-06 23:40:00,65.2,61.9,30.06,North,5,0.0,0.0,89,0.00,,,0.00,Wunderground v.1.15,2013-02-07 04:40:00,
2013-02-06 23:45:00,65.0,61.4,30.06,North,5,0.0,0.0,88,0.00,,,0.00,Wunderground v.1.15,2013-02-07 04:45:00,
2013-02-06 23:50:00,64.7,61.1,30.06,North,5,0.0,0.0,88,0.00,,,0.00,Wunderground v.1.15,2013-02-07 04:50:00,
2013-02-06 23:55:00,64.5,60.9,30.06,North,5,0.0,0.0,88,0.00,,,0.00,Wunderground v.1.15,2013-02-07 04:55:00,